Flag Weather past 2 weeks in São Paulo, São Paulo, Brazil

Now
72 °F

Passing clouds.


Feels Like: 76 °F
Forecast: 66 / 83 °F
Wind: 6 mph from East

Location: Sao Paulo Airport

Current Time: Nov 21, 2014 at 12:58:07 AM

Latest Report: Nov 21, 2014 at 12:00 AM


Visibility: N/A

Pressure: 30.09 "Hg

Humidity: 57%

Dew point: 55 °F

Location of São PauloLocation

Historic Weather in São Paulo — Graph

°F

São Paulo temperature yesterday

Maximum temperature yesterday: 79 °F (at 1:00 PM)
Minimum temperature yesterday: 68 °F (at 12:00 AM)
Average temperature yesterday: 71 °F

Past Weeks' High & Low Weather Summary

 TemperatureHumidityPressure
High86 °F (Nov 7, 2:00 PM)100% (Nov 8, 1:00 AM)30.21 "Hg (Nov 8, 1:00 AM)
Low36 °F (Nov 8, 1:00 AM)31% (Nov 19, 3:00 PM)29.80 "Hg (Nov 12, 5:00 PM)
Average68 °F70%30.03 "Hg
* Reported Nov 5 11:00 PM — Nov 20 11:00 PM, São Paulo, Weather by CustomWeather, © 2014

Note: Actual official high and low records may vary slightly from our data, if they occured in-between our weather recording intervals... More about our weather records

Advertising

São Paulo weather history for previous 24 hours

 ConditionsComfort  
Time TempWeatherWind HumidityBarometerVisibility
11:00 PM
Nov 20
72 °FPassing clouds.6 mph69%30.09 "HgN/A
10:00 PM70 °FPassing clouds.6 mph69%30.09 "HgN/A
9:00 PM70 °FPassing clouds.3 mph69%30.07 "HgN/A
8:00 PM70 °FPassing clouds.7 mph69%30.04 "Hg6 mi
7:00 PM72 °FSunny.9 mph73%30.04 "Hg10 mi
6:00 PM72 °FSunny.12 mph73%30.04 "Hg10 mi
5:00 PM73 °FPassing clouds.10 mph69%30.04 "HgN/A
4:00 PM73 °FClear.12 mph69%30.04 "Hg5 mi
3:00 PM75 °FPartly sunny.10 mph65%30.04 "HgN/A
2:00 PM79 °FPartly sunny.2 mph45%30.07 "HgN/A
1:00 PM79 °FSunny.5 mph48%30.07 "Hg10 mi
12:00 PM77 °FSunny.7 mph51%30.09 "Hg10 mi
11:00 AM73 °FSunny.6 mph61%30.09 "Hg10 mi
10:00 AM72 °FSunny.7 mph65%30.12 "Hg10 mi
9:00 AM72 °FSunny.2 mph61%30.09 "Hg10 mi
8:00 AM68 °FSunny.7 mph69%30.07 "Hg10 mi
7:00 AM68 °FSunny.7 mph69%30.04 "Hg10 mi
6:00 AM68 °FClear.8 mph64%30.04 "Hg10 mi
5:00 AM68 °FClear.8 mph64%30.01 "Hg10 mi
4:00 AM68 °FClear.7 mph64%30.01 "Hg10 mi
3:00 AM68 °FClear.5 mph64%30.01 "Hg10 mi
2:00 AM68 °FClear.3 mph69%30.04 "Hg10 mi
1:00 AM68 °FClear.3 mph69%30.04 "Hg10 mi
12:00 AM68 °FClear.6 mph69%30.04 "Hg10 mi
Weather by CustomWeather, © 2014

See weather overviewHow to use our weather pages